Regional Weather Roundup
Issued by NWS

Home | Current Version | Previous Version | Graphics & Text | Print | Product List | Glossary On
Versions: 1 2 3 4 5 6 7 8 9 10 11 12 13 14 15 16 17 18 19 20 21 22 23 24 25 26 27 28 29 30 31 32 33 34 35 36 37 38 39 40 41 42 43 44 45 46 47 48 49 50
000
ASUS43 KDMX 240101
RWRIA

WEATHER ROUNDUP FOR IOWA
NATIONAL WEATHER SERVICE DES MOINES IA
700 PM CST FRI FEB 23 2018

NOTE: "FAIR" INDICATES FEW OR NO CLOUDS BELOW 12,000 FEET WITH NO
SIGNIFICANT WEATHER AND/OR OBSTRUCTIONS TO VISIBILITY.

* - THESE STATIONS ARE NOT NWS STATIONS...THUS NOT UNDER NWS
QUALITY CONTROL.  THEY ALSO DO NOT REPORT WEATHER SUCH
AS PRECIPITATION OR FOG.

IAZ001>003-012>014-020>022-031>034-043>046-240200-
   NORTHWEST IOWA

CITY           SKY/WX    TMP DP  RH WIND       PRES   REMARKS
CARROLL *      CLOUDY    21  19  93 NW15      30.28F WCI   8
CHEROKEE *     CLOUDY    22  21  96 N6        30.29F WCI  14
DENISON *      CLOUDY    21  19  93 N9G17     30.29F WCI  11
LE MARS *      CLOUDY    19  18  93 N7        30.31S WCI  10
ORANGE CITY *  CLOUDY    19  19 100 N5        30.29F WCI  13
SHELDON *      CLOUDY    19  19 100 NW9       30.28S WCI   9
SIOUX CITY     CLOUDY    21  18  88 NE9       30.31F WCI  11
SPENCER        CLOUDY    24  19  81 NW10      30.29S WCI  14
STORM LAKE *   CLEAR     21  19  93 N10       30.27F WCI  10
$$

IAZ055>058-069>071-079>083-090>094-240200-
   SOUTHWEST IOWA

CITY           SKY/WX    TMP DP  RH WIND       PRES   REMARKS
ATLANTIC *     CLOUDY    25  25 100 N9        30.27R WCI  15
AUDUBON *      CLOUDY    21  19  93 N12       30.26F WCI   9
CLARINDA *     CLOUDY    32  30  93 N12       30.27F WCI  23
COUNCIL BLFS * CLOUDY    23  25 100 N8        30.27R WCI  14
CRESTON *      CLOUDY    30  27  86 N9        30.26R WCI  22
HARLAN  *      CLOUDY    21  21 100 N14       30.30S WCI   8
LAMONI         CLOUDY    31  26  82 N3        30.24R
RED OAK *      CLOUDY    28  25  86 N10       30.27F WCI  19
SHENANDOAH *   CLOUDY    30  27  86 N12       30.27F WCI  21
$$

IAZ047>049-059>061-072>074-084-240200-
   CENTRAL IOWA

CITY           SKY/WX    TMP DP  RH WIND       PRES   REMARKS
AMES           CLOUDY    25  21  85 N10       30.28F WCI  15
ANKENY *       CLOUDY    25  23  93 N12       30.30S WCI  14
BOONE *        CLOUDY    23  21  93 MISG      30.27F
CHARITON *     PTCLDY    30  28  93 N9        30.25S WCI  22
DES MOINES     CLOUDY    27  22  81 N7        30.28S WCI  19
GRINNELL*      CLOUDY    28  25  89 NW7       30.28S WCI  21
KNOXVILLE *    PTCLDY    28  25  86 N8        30.26S WCI  20
MARSHALLTOWN   MOCLDY    26  23  88 N9        30.28S WCI  17
NEWTON *       CLOUDY    27  25  93 N12       30.27F WCI  16
PELLA *        CLEAR     28  25  88 N7        30.29S WCI  21
$$

IAZ004>006-015-016-023>025-035-036-240200-
   NORTH CENTRAL IOWA

CITY           SKY/WX    TMP DP  RH WIND       PRES   REMARKS
CLARION *      CLOUDY    21  23 100 NW8       30.29F WCI  12
ESTHERVILLE    CLEAR     15  13  91 W6        30.28S WCI   6
FORT DODGE *   CLOUDY    21  18  88 NW7       30.30S WCI  12
MASON CITY     CLEAR     17  14  88 W8        30.29S WCI   7
FOREST CITY *  FAIR      18  16  93 W3        30.28F
WEBSTER CITY * CLOUDY    23  19  86 NW10      30.28F WCI  12
IOWA FALLS *   CLOUDY    25  23  91 NW10      30.30S WCI  15
$$

IAZ007>011-017>019-026>030-037>042-050>054-066-240200-
   NORTHEAST IOWA

CITY           SKY/WX    TMP DP  RH WIND       PRES   REMARKS
CEDAR RAPIDS   FAIR      29  24  82 N10       30.26S WCI  20
CHARLES CITY * FAIR      25  25 100 NW6       30.29R WCI  18
CLINTON *      FAIR      31  28  89 NW9       30.28R WCI  23
DECORAH *      FAIR      25  23  93 VRB6G12   30.26R WCI  18
DUBUQUE        FAIR      29  24  82 NW10      30.24F WCI  20
MONTICELLO *   FAIR      30  25  80 NW9       30.26F WCI  22
OELWEIN *      FAIR      27  27 100 NW13      30.28S WCI  16
WATERLOO       FAIR      26  23  88 NW10      30.29R WCI  16
$$

IAZ064-065-067-068-078-240200-
   EAST CENTRAL IOWA

CITY           SKY/WX    TMP DP  RH WIND       PRES   REMARKS
DAVENPORT      FAIR      33  28  81 NW7       30.29R WCI  27
IOWA CITY      FAIR      32  24  72 NW6       30.29S WCI  26
MT. PLEASANT * CLOUDY    32  30  93 N3        30.28S
MUSCATINE *    CLOUDY    32  28  86 N6        30.29R WCI  26
QUAD CITIES    FAIR      35  29  78 NW8       30.27R WCI  29
$$

IAZ062-063-075>077-085>089-095>099-240200-
   SOUTHEAST IOWA

CITY           SKY/WX    TMP DP  RH WIND       PRES   REMARKS
BURLINGTON     CLOUDY    35  29  78 N3        30.27S
FAIRFIELD *    PTCLDY    32  28  86 N6        30.27R WCI  26
FORT MADISON * CLOUDY    36  30  80 N5        30.28S WCI  32
KEOKUK *       CLOUDY    36  32  87 MISG      30.27S
OSKALOOSA *    FAIR      31  28  89 N8        30.28R WCI  23
OTTUMWA        CLOUDY    31  26  82 N7        30.27R WCI  24
WASHINGTON *   CLOUDY    32  32 100 N8        30.29R WCI  25
$$

ABBREVIATIONS USED IN REMARKS
   TC - TEMPERATURES IN CELSIUS
  WCI - WIND CHILL INDEX
   HX - HEAT INDEX
  VSB - VISIBILITY
$$





USA.gov is the U.S. government's official web portal to all federal, state and local government web resources and services.